www.pogodaiklimat.ru

Погода и климат >> Архив погоды >> Парагвай >> Пилар


ПОГОДА в Пиларе

  • Прогноз погоды в Пиларе
  • Монитор погоды в Пиларе

АРХИВ ПОГОДЫ в Пиларе

Время (UTC), дата Ветер
(напр.,м/с)
 
Видим.   Явления Облачность Т
(С)
Тd
(С)
f
(%)
Тe
(С)
Тes
(С)
Комфортность P
(гПа)
Po
(гПа)
Тmin
(С)
Tmax
(С)
R
(мм)
R24
(мм)
S
(см)
09 15.08 Ю 1 20 км ясно +5.6 +4.7 94 +4 +4 1024.4 1017.2
12 15.08 штиль 0 20 км ясно +8.0 +5.8 86 +7 +11 1025.6 1018.4 +4.0
15 15.08 СВ 2 20 км ясно +12.0 +5.5 64 +11 +23 опасность
простуды
1023.5 1016.4
18 15.08 СВ 2 20 км ясно +23.0 +10.2 44 +25 +34 комфорт 1020.5 1013.7
21 15.08 СВ 2 20 км ясно +22.2 +13.2 57 +25 +25 комфорт 1019.5 1012.7
00 16.08 В 1 20 км ясно +19.0 +15.6 81 +21 +21 комфорт 1019.6 1012.7 +24.0
09 16.08 В 1 20 км 3/0 2000 м
[Ac trans]
+16.0 +14.2 89 +17 +17 1015.7 1008.8
12 16.08 СВ 2 20 км 6/3 1110 м
[Sc Ac trans]
+20.0 +14.9 72 +23 +24 комфорт 1016.4 1009.6 +15.0
15 16.08 С 8 20 км 6/3 1110 м
[Sc Ac trans]
+24.0 +15.7 60 +27 +28 жарко 1016.4 1009.7
18 16.08 С 10 20 км ясно +30.0 +15.4 41 +33 +33 душно 1012.3 1005.7
21 16.08 С 6 20 км ясно +30.0 +15.4 41 +33 +33 душно 1011.3 1004.7
09 17.08 СВ 2 20 км ясно +19.0 +15.6 81 +21 +21 комфорт 1011.0 1003.4
12 17.08 СВ 2 20 км 3/0 600 м
[Cs]
+19.4 +11.4 60 +21 +24 комфорт 1009.6 1002.8 +17.0
18 17.08 СВ 2 20 км ясно +29.0 +14.0 40 +31 +40 жарко 1006.6 1000.0
21 17.08 СВ 2 20 км ясно +30.1 +15.2 40 +32 +33 жарко 1006.4 999.8
00 18.08 С 2 20 км ясно +27.0 +17.5 56 +31 +31 душно 1008.2 1001.6 +31.0
12 18.08 Ю 4 20 км 8/4 800 м
[Frnb Ac cast]
+17.0 +13.4 79 +17 +17 1013.1 1006.2 +17.0
18 18.08 Ю 10 20 км 8/4 800 м
[Frnb Ac cast]
+19.6 +11.2 58 +20 +20 1018.3 1014.4
21 18.08 Ю 10 20 км 10/5 600 м
[Sc Ac As]
+18.0 +8.2 53 +17 +17 1019.0 1012.1
00 19.08 Ю 6 20 км 10/5 600 м
[Sc Ac As]
+15.0 +11.2 78 +13 +13 1020.1 1013.1 +27.0
09 19.08 Ю 13 20 км 8/8 600 м
[Sc]
+11.0 +6.8 75 +6 +6 1022.9 1015.8
12 19.08 Ю 10 20 км ясно +11.0 +6.8 75 +7 +7 1023.7 1016.6 +10.0
18 19.08 Ю 6 20 км ясно +17.6 +3.7 40 +17 +20 1023.4 1016.5
21 19.08 Ю 6 20 км ясно +17.0 +4.2 43 +16 +16 1021.4 1014.5
00 20.08 Ю 5 20 км ясно +14.0 +5.5 57 +12 +12 1021.5 1014.5 +20.0
09 20.08 Ю 2 20 км ясно +8.0 +5.8 86 +6 +6 1024.1 1016.9
12 20.08 Ю 2 20 км ясно +10.0 +5.6 74 +9 +12 1024.7 1017.6 +7.0
15 20.08 Ю 2 20 км 3/0 600 м
[Cs]
+15.0 +11.2 78 +15 +27 опасность
простуды
1025.9 1018.9
18 20.08 Ю 4 20 км ясно +17.0 +9.3 60 +17 +23 1024.7 1017.8
21 20.08 Ю 2 20 км ясно +20.0 +6.2 41 +21 +22 комфорт 1022.7 1015.8
00 21.08 Ю 1 20 км ясно +16.0 +10.5 70 +17 +17 1022.2 1015.2 +20.0
09 21.08 Ю 2 20 км ясно +8.2 +6.0 86 +6 +6 1024.2 1017.0
12 21.08 ЮВ 4 20 км ясно +10.0 +9.6 97 +7 +9 1025.2 1018.1 +8.0
15 21.08 ЮВ 1 20 км ясно +20.0 +5.9 40 +22 +37 комфорт 1025.5 1018.6
18 21.08 ЮВ 4 20 км ясно +23.0 +12.5 52 +26 +32 жарко 1021.6 1014.8
00 22.08 ЮВ 2 20 км ясно +18.0 +10.5 62 +19 +19 1021.6 1014.8 +23.0

 

Местоположение метеостанции Пилар (Парагвай): широта -26.85 долгота -58.31 высота над уровнем моря 56 м.

В архиве по умолчанию представлена погода в Пиларе за последнюю неделю. Архивные данные за месяц целиком и за предыдущие месяцы, начиная с января 2011 года, Вы можете получить, выбрав интересующий диапазон дат из раскрывающегося списка и нажав кнопку "Ввод!".


*Определитесь, кто Вы:
робот инопланетянин человек

Внимание! Время в таблицах - всемирное. Для получения местного времени необходимо прибавить поправку, которая равна -4 ч.

Смотрите также архив погоды в соседних городах и на ближайших метеорологических станциях:

Погода в Формосе (Аргентина) (73 км)
Погода в Корриентесе (Аргентина) (80 км)
Погода в Ресистенсии (Аргентина) (99 км)
Погода в Сан Хуан Батистута (Парагвай) (117 км)
Погода в Куйкуйо (Парагвай) (150 км)
Погода в Парагуари (Парагвай) (180 км)
Погода в Асунсьоне (Парагвай) (195 км)
Погода в Каасапе (Парагвай) (209 км)
Погода в Пресиденсиа-Роке-Саэнс-Пеньи (Аргентина) (216 км)
Погода в Вильяррике (Парагвай) (224 км)

Пояснения к столбцам:

Ветер - указаны скорость ветра в м/с - средняя за 10 мин, порывы в срок и между сроками (в фигурных скобках) и направление, откуда дует ветер: С - северный, СВ - северо-восточный, В - восточный, ЮВ - юго-восточный, Ю - южный, ЮЗ - юго-западный, З - западный, СЗ - северо-западный.
Видимость - горизонтальная дальность видимости в метрах или километрах. При видимости от 1 до 10 км при отсутствии осадков обычно наблюдается дымка, при ухудшении видимости до 1 км и менее - туман. В сухую погоду видимость может ухудшаться дымом, пылью или мглою.
Явления - указаны атмосферные явления, наблюдавшиеся в срок или в последний час перед сроком; фигурными скобками обозначены явления, наблюдавшиеся между сроками (за 1-3 часа до срока); квадратными скобками обозначены град или гололедные отложения с указанием их диаметра в мм.
Облачность - указаны через наклонную черту общая и нижняя облачность в баллах и высота нижней границы облаков в метрах; квадратными скобками обозначены формы облаков: Ci - перистые, Cs - перисто-слоистые, Cc - перисто-кучевые, Ac - высококучевые, As - высокослоистые, Sc - слоисто-кучевые, Ns - слоисто-дождевые, Cu - кучевые, Cb - кучево-дождевые. Подробнее классификацию облаков см. в Атласе облаков (PDF).
T - Температура воздуха - температура, измеренная на высоте 2 м над землей.
Td - Температура точки росы - температура, при понижении до которой содержащийся в воздухе водяной пар достигнет насыщения.
f - Относительная влажность воздуха - влажноcть воздуха, измеренная на высоте 2 м над землей.
Te - Эффективная температура - температура, которую ощущает одетый по сезону человек в тени. Характеристика душности погоды. При расчете учитывается влияние влажности воздуха и скорости ветра на теплоощущения человека.
Tes - Эффективная температура на солнце - температура, которую ощущает человек, с поправкой на солнечный нагрев. Характеристика знойности погоды. Зависит от высоты солнца над горизонтом, облачности и скорости ветра. Ночью, в пасмурную погоду, а также при ветре 12 м/с и более поправка равна нулю.
P - Атмосферное давление - приведенное к уровню моря атмосферное давление.
Po - Атмосферное давление - измеренное на уровне метеостанции атмосферное давление.
Tmin - Минимальная температура - минимум температуры воздуха на высоте 2 м над землей.
Tmax - Максимальная температура - максимум температуры воздуха на высоте 2 м над землей.
R - Количество осадков - Количество выпавших осадков за период времени, мм. При наведении курсора мыши на число - период времени, за который выпало указанное количество осадков.
R24 - Количество осадков - Количество выпавших осадков за 24 часа, мм.
S - Снежный покров - Высота снежного покрова, см. При наведении курсора мыши на число - состояние снежного покрова и степень покрытия местности в баллах.